Weather in Hanzhong

China     33°04′38″N   107°00′31″E
temp.,
°C
wind,
m/s
gust,
m/s
humid.,
%
clouds,
%
prec.,
mm/h
press.,
hPa
HPBL,
m
27 february, sat
sat2723:00+5e247495 0.0 1021302
02:00+4se128185 0.0 101969
05:00+3sse118281 0.0 101854
08:00+4se117888 0.0 1017125
11:00+6e2468100 0.0 1017659
14:00+9ene336298 0.0 1013840
17:00+9e2465100 0.1 1012849
20:00+8ene1475100 0.3 1014315
28 february, sun
sun2823:00+7wsw0186100 0.9 1016201
02:00+7sw1190100 1.5 1016138
05:00+7nw1194100 0.7 1014127
08:00+7nw1195100 2.3 1016129
11:00+6nw2290100 1.8 1017252
14:00+6nw1287100 3.2 1015269
17:00+5w1289100 1.7 1015212
20:00+5wnw1192100 2.9 1017151
1 march, mon
mon123:00+5wsw2293100 1.9 1020111
02:00+6wsw2291100 2.8 1021107
05:00+6wsw2587100 0.8 1023216
08:00+6ssw2380100 1.1 1027178
11:00+9w225196 0.0 1029905
14:00+12se124068 0.0 10261331
17:00+13sse33380 0.0 1025974
20:00+9s11500 0.0 102822
2 march, tue
tue223:00+8nnw005582 0.0 103022
02:00+6ene116288 0.0 102822
05:00+5ene1167100 0.0 102622
08:00+5se017096 0.0 102622
11:00+9ne2258100 0.0 1025628
14:00+12ene334398 0.0 10211061
17:00+13ene3438100 0.0 10211349
20:00+10ene4758100 0.0 1024348
3 march, wed
wed323:00+7ne3578100 0.0 1026245
02:00+6nne1184100 0.0 102522
05:00+5wsw1187100 0.0 102322
08:00+5w018799 0.0 102431
11:00+10n1163100 0.0 1022598
14:00+14ne214565 0.0 1018884
17:00+15ene22420 0.0 10161037
20:00+11ene115637 0.0 101723